Погода в Лиманове

Польша     49°42′53″N   20°25′16″E
темп.,
°C
ветер,
м/с
пор.,
м/с
влажн.,
%
обл.,
%
осадки,
мм/ч
давл.,
гПа
погр.,
м
20 июня, вс
вс2023:00+17ююв22934 0.0 101619
02:00+15ююв11940 0.0 101511
05:00+14ююв11940 0.0 101411
08:00+20юв12690 0.0 1014327
11:00+25в33475 0.0 10131157
14:00+27всв33414 0.0 10121713
17:00+26всв44555 0.0 10121058
20:00+21вюв24840 0.0 101188
21 июня, пн
пн2123:00+18ююв22940 0.0 101217
02:00+16ю21940 0.0 101114
05:00+15ююв219254 0.0 101015
08:00+21юв1268100 0.0 1010307
11:00+26в22510 0.0 10091018
14:00+29ссв334516 0.0 10081704
17:00+28ссв32522 0.1 10081291
20:00+23в11790 0.1 100811
22 июня, вт
вт2223:00+19ю22860 0.0 100827
02:00+18ююз228388 0.0 100919
05:00+17ююз1189100 0.8 101011
08:00+22ю117284 0.8 1010247
11:00+25с226799 0.1 1011846
14:00+25с1174100 3.2 1011305
17:00+25с1177100 1.1 1011303
20:00+22вюв118499 3.3 101111
23 июня, ср
ср2323:00+19ююв119124 0.3 101211
02:00+18ю229410 0.4 101216
05:00+17ю21920 0.0 101217
08:00+22ююв12760 0.0 1012196
11:00+28с21563 0.0 1013840
14:00+29с435320 0.1 10131128
17:00+20в1398100 14.4 101575
20:00+22зюз118895 16.0 101612
24 июня, чт
чт2423:00+19з2295100 2.9 101736
02:00+18зсз229715 2.9 101833
05:00+16зюз009814 0.0 101811
08:00+20в229166 0.0 1017382
11:00+24в237250 0.0 1016807
14:00+26с327899 3.0 1015545
17:00+23св359139 7.7 1016253
20:00+19ссв129717 10.1 101757